Find Meteor-2

NORAD ID: 14452 Int'l Des: 1983-109 Owner: GUKOS/GMS Country: SU operational
LEOCIRCULARPOLAR

实时位置

正在加载3D地球...

关于 Meteor-2

正在加载描述...

即将过境

Passes for default location (London). Set your location on the main map for personalized predictions.

高度历史

Loading altitude history...

两行轨道根数

1 14452U 83109A 26106.88233979 .00000078 00000-0 25422-4 0 9995
2 14452 81.1614 58.9827 0090497 21.3911 339.1012 14.27260448208674
Epoch: Apr 16, 2026 • Age: 14 hours

当前状态

高度 789.7 km
速度 7.48 km/s
星下点 80.98°N, 124.27°E
发射日期 Oct 28, 1983
运行时间 42.4 years
类型 other

技术详情

分类 Payload
质量 1500.00 kg
干质量 1500.00 kg
总质量 1500.00 kg
长度 4.50 m
直径 1.40 m
跨度 4.50 m
形状 Cyl + 2 Pan
制造商 VNIEM
平台类型 Meteor-2
阶段状态 In Orbit
所有者/国家 GUKOS/GMS/SU

Most Searched